Terminal Aerodrome Forecast
Issued by NWS

Home | Current Version | Previous Version | Text Only | Print | Product List | Glossary On
Versions: 1 2 3 4 5 6 7 8 9 10 11 12 13 14 15 16 17 18 19 20 21 22 23 24 25 26 27 28 29 30 31 32 33 34 35 36 37 38 39 40 41 42 43 44 45 46 47 48 49 50
000
FTAK31 PANC 271742
TAFASD
TAF
PASD 271742Z 2718/2818 14015G22KT P6SM -RA SCT008 BKN025 OVC040
     FM272200 16018G28KT 3SM -RA BR BKN008 OVC020
     FM280400 15008KT 4SM -RA BR BKN005 OVC012
     FM281500 35010KT 5SM -RA BR BKN008 BKN020
      AMD LTD TO CLD VIS AND WIND=

USA.gov is the U.S. government's official web portal to all federal, state and local government web resources and services.